Hourly Data Report for July 28, 2021

CLYDE RIVER A
NUNAVUT
Current Station Operator: NAVCAN

70°29'09.000" N
68°31'01.000" W
26.50 m
2400804
71090
YCY

Download Data

Hourly Data (July 2021)
Hourly Data Report for July 28, 2021
TIME
LST
Temp Definition
°C
Dew Point Definition
°C
Rel Hum Definition
%
Precip. Amount Definition
mm

Wind Dir Definition
10's deg

Wind Spd Definition
km/h
Visibility Definition
km
Stn Press Definition
kPa
Hmdx Definition


Wind Chill Definition


Weather Definition


00:00 6.6 4.9 89 0.0 24 8 16.1 100.38     LegendNANA
01:00 4.1 3.1 93 0.0 4 8 16.1 100.41     LegendNANA
02:00 4.5 3.4 92 0.0 LegendMM 4 16.1 100.41     LegendNANA
03:00 4.9 3.6 91 0.0 26 4 16.1 100.43     LegendNANA
04:00 5.2 3.7 90 0.0 26 11 16.1 100.47     LegendNANA
05:00 7.0 4.8 86 0.0 25 9 16.1 100.51     LegendNANA
06:00 7.3 4.6 83 0.0 25 9 16.1 100.54     LegendNANA
07:00 10.5 6.3 75 0.0   0 16.1 100.57     LegendNANA
08:00 11.0 6.8 75 0.0 12 8 16.1 100.58     LegendNANA
09:00 9.8 6.6 81 0.0 10 8 16.1 100.61     LegendNANA
10:00 10.5 6.5 76 0.0 LegendMM 4 16.1 100.64     LegendNANA
11:00 10.8 5.9 72 0.0 10 9 16.1 100.63     LegendNANA
12:00 11.0 5.7 70 0.0 11 13 16.1 100.66     LegendNANA
13:00 10.6 5.3 69 0.0 11 11 16.1 100.68     LegendNANA
14:00 10.7 5.2 69 0.0 13 11 16.1 100.69     LegendNANA
15:00 10.9 5.2 68 0.0 12 11 16.1 100.71     LegendNANA
16:00 10.6 5.2 69 0.0 11 11 16.1 100.73     LegendNANA
17:00 10.3 5.4 72 0.0 11 13 16.1 100.72     LegendNANA
18:00 8.8 5.1 77 0.0 11 13 16.1 100.73     LegendNANA
19:00 8.1 5.1 81 0.0 11 13 16.1 100.74     LegendNANA
20:00 6.4 4.4 87 0.0 12 11 16.1 100.75     LegendNANA
21:00 5.8 4.0 88 0.0 10 5 16.1 100.76     LegendNANA
22:00 4.7 3.5 92 0.0 LegendMM 4 16.1 100.78     LegendNANA
23:00 3.5 2.8 95 0.0 LegendMM 4 16.1 100.81     LegendNANA

Notes on Data Quality.

Legend

  • E = Estimated
  • M = Missing
  • NA = Not Available*
  • [empty] = Indicates an unobserved value
Date modified: